Georgetown, DE

1:28 AM EDT on September 01, 2016 (GMT -0400)
Sussex County

Weather History for KGED - April, 2013

Change the Weather History Date:

Thursday, April 25, 2013

  Actual Average Record
Temperature  
Mean Temperature 54 °F 57 °F  
Max Temperature 64 °F 67 °F 93 °F (2009)
Min Temperature 44 °F 46 °F 27 °F (1956)
Degree Days  
Heating Degree Days 11 9  
Month to date heating degree days 253 307  
Since 1 July heating degree days 3965 4219  
Cooling Degree Days 0 1  
Month to date cooling degree days 31 15  
Year to date cooling degree days 31 17  
Growing Degree Days 5 (Base 50)    
Moisture  
Dew Point 35 °F    
Average Humidity 52    
Maximum Humidity 78    
Minimum Humidity 26    
Precipitation  
Precipitation T in 0.11 in 0.92 in (1952)
Month to date precipitation 2.56 3.15  
Year to date precipitation 11.11 12.91  
Sea Level Pressure  
Sea Level Pressure 30.19 in    
Wind  
Wind Speed 6 mph (NW)    
Max Wind Speed 17 mph    
Max Gust Speed 26 mph    
Visibility 10 miles    
Events Rain    
T = Trace of Precipitation, MM = Missing Value Source: NWS Daily Summary

Daily Weather History Graph

Daily Weather History Graph

Search for Another Location

Airport or City:

Trip Planner

Search our weather history database for the weather conditions in past years. The results will help you decide how hot, cold, wet, or windy it might be!

Date:

Astronomy

Apr. 25, 2013 Rise Set
Actual Time 6:11 AM EDT 7:48 PM EDT
Civil Twilight 5:43 AM EDT 8:16 PM EDT
Nautical Twilight 5:09 AM EDT 8:50 PM EDT
Astronomical Twilight 4:33 AM EDT 9:26 PM EDT
Moon 7:58 PM EDT (4/25) 5:52 AM EDT (4/25)
Length of Visible Light 14h 33m
Length of Day
13h 36m
Full, 100% of the Moon is Illuminated
Apr 25
Full
Apr 25
Full
May 2
Last Quarter
May 9
New
May 18
First Quarter

Hourly Weather History & Observations

Time (EDT) Temp. Dew Point Humidity Pressure Visibility Wind Dir Wind Speed Gust Speed Precip Events Conditions
12:54 AM 60.1 °F 54.0 °F 80% 29.94 in 10.0 mi SSW 9.2 mph - N/A   Clear
1:54 AM 62.1 °F 54.0 °F 75% 29.97 in 10.0 mi WNW 9.2 mph - N/A   Mostly Cloudy
2:54 AM 62.1 °F 46.0 °F 56% 30.01 in 10.0 mi NNW 6.9 mph 16.1 mph N/A   Overcast
3:54 AM 57.0 °F 37.9 °F 49% 30.06 in 10.0 mi NNW 6.9 mph - N/A   Overcast
4:54 AM 54.0 °F 37.9 °F 55% 30.10 in 10.0 mi NW 9.2 mph 17.3 mph 0.00 in Rain Light Rain
5:54 AM 50.0 °F 37.0 °F 61% 30.16 in 10.0 mi NNW 8.1 mph 26.5 mph 0.00 in Rain Light Rain
6:54 AM 48.9 °F 35.1 °F 59% 30.19 in 10.0 mi NNW 6.9 mph 21.9 mph 0.00 in   Overcast
7:54 AM 48.9 °F 32.0 °F 52% 30.23 in 10.0 mi NNW 9.2 mph 16.1 mph N/A   Mostly Cloudy
8:54 AM 50.0 °F 30.0 °F 46% 30.24 in 10.0 mi North 11.5 mph 21.9 mph N/A   Clear
9:54 AM 52.0 °F 30.9 °F 45% 30.25 in 10.0 mi North 10.4 mph 18.4 mph N/A   Clear
10:54 AM 55.0 °F 32.0 °F 42% 30.25 in 10.0 mi North 6.9 mph - N/A   Clear
11:54 AM 57.9 °F 30.9 °F 36% 30.25 in 10.0 mi Variable 6.9 mph - N/A   Clear
12:54 PM 59.0 °F 28.9 °F 32% 30.23 in 10.0 mi North 10.4 mph - N/A   Clear
1:54 PM 61.0 °F 30.0 °F 31% 30.23 in 10.0 mi Variable 6.9 mph - N/A   Clear
2:54 PM 62.1 °F 30.9 °F 31% 30.22 in 10.0 mi Calm Calm - N/A   Clear
3:54 PM 64.0 °F 28.0 °F 26% 30.22 in 10.0 mi Variable 6.9 mph - N/A   Clear
4:54 PM 63.0 °F 30.0 °F 29% 30.22 in 10.0 mi Variable 3.5 mph - N/A   Clear
5:54 PM 64.0 °F 30.0 °F 28% 30.22 in 10.0 mi Variable 5.8 mph - N/A   Clear
6:54 PM 63.0 °F 28.0 °F 27% 30.22 in 10.0 mi Variable 4.6 mph - N/A   Clear
7:54 PM 55.0 °F 39.0 °F 55% 30.25 in 10.0 mi South 8.1 mph - N/A   Clear
8:54 PM 51.1 °F 37.0 °F 59% 30.28 in 10.0 mi South 6.9 mph - N/A   Clear
9:54 PM 48.9 °F 37.0 °F 64% 30.30 in 10.0 mi South 5.8 mph - N/A   Clear
10:54 PM 46.9 °F 37.0 °F 68% 30.30 in 10.0 mi Calm Calm - N/A   Clear
11:54 PM 46.9 °F 37.0 °F 68% 30.31 in 10.0 mi Calm Calm - N/A   Clear